When you browse on this site, cookies collect data to enhance your experience and personalize the content and advertising you see.
Visit our Privacy Policy to learn more. By continuing to use the site, you agree to this use of cookies and data.
  • en France
  • Liste des pays
  • À 7 jours
  • Température de l'eau
  • Carte météo
  • Widgets météo
  • user-avatar
    Se connecter

    Météo par heure à Yambol

    Ce jour, 16 Septembre, Lundi

    Heure Température Précipitation Vent Pression Humidité
    00:00 +15°C° 0 mm 1 m/s 755 mmHg 82%
    01:00 +15°C° 0 mm 1 m/s 754 mmHg 82%
    02:00 +15°C° 0 mm 1 m/s 754 mmHg 85%
    03:00 +15°C° 0 mm 1 m/s 754 mmHg 84%
    04:00 +15°C° 0 mm 1 m/s 753 mmHg 84%
    05:00 +14°C° 0 mm 1 m/s 753 mmHg 83%
    06:00 +16°C° 0 mm 1 m/s 753 mmHg 76%
    07:00 +19°C° 0 mm 1 m/s 753 mmHg 69%
    08:00 +20°C° 0 mm 1 m/s 753 mmHg 60%
    09:00 +23°C° 0 mm 1 m/s 753 mmHg 51%
    10:00 +26°C° 0 mm 1 m/s 752 mmHg 42%
    11:00 +28°C° 0 mm 1 m/s 752 mmHg 33%
    12:00 +29°C° 0 mm 1 m/s 751 mmHg 30%
    13:00 +30°C° 0 mm 1 m/s 751 mmHg 27%
    14:00 +31°C° 0 mm 1 m/s 750 mmHg 24%
    15:00 +31°C° 0 mm 1 m/s 750 mmHg 24%
    16:00 +31°C° 0 mm 1 m/s 749 mmHg 25%
    17:00 +30°C° 0 mm 1 m/s 749 mmHg 25%
    18:00 +28°C° 0 mm 1 m/s 749 mmHg 31%
    19:00 +25°C° 0 mm 1 m/s 749 mmHg 37%
    20:00 +22°C° 0 mm 1 m/s 750 mmHg 43%
    21:00 +21°C° 0 mm 1 m/s 750 mmHg 45%
    22:00 +20°C° 0 mm 1 m/s 749 mmHg 47%
    23:00 +20°C° 0 mm 1 m/s 749 mmHg 49%

    Demain, 17 Septembre, Mardi

    Heure Température Précipitation Vent Pression Humidité
    00:00 +19°C° 0 mm 1 m/s 749 mmHg 50%
    01:00 +19°C° 0 mm 1 m/s 749 mmHg 51%
    02:00 +18°C° 0 mm 1 m/s 749 mmHg 52%
    03:00 +18°C° 0 mm 1 m/s 749 mmHg 52%
    04:00 +18°C° 0 mm 1 m/s 749 mmHg 53%
    05:00 +18°C° 0 mm 1 m/s 748 mmHg 54%
    06:00 +20°C° 0 mm 1 m/s 749 mmHg 49%
    07:00 +20°C° 0 mm 2 m/s 749 mmHg 44%
    08:00 +23°C° 0 mm 2 m/s 749 mmHg 39%
    09:00 +26°C° 0 mm 2 m/s 749 mmHg 34%
    10:00 +28°C° 0 mm 3 m/s 749 mmHg 28%
    11:00 +31°C° 0 mm 3 m/s 749 mmHg 23%
    12:00 +33°C° 0 mm 3 m/s 749 mmHg 20%
    13:00 +34°C° 0 mm 3 m/s 748 mmHg 18%
    14:00 +35°C° 0 mm 3 m/s 748 mmHg 16%
    15:00 +35°C° 0 mm 3 m/s 747 mmHg 16%
    16:00 +35°C° 0 mm 2 m/s 747 mmHg 16%
    17:00 +35°C° 0 mm 2 m/s 747 mmHg 17%
    18:00 +31°C° 0 mm 2 m/s 747 mmHg 20%
    19:00 +28°C° 0 mm 1 m/s 747 mmHg 24%
    20:00 +25°C° 0 mm 1 m/s 747 mmHg 28%
    21:00 +25°C° 0 mm 1 m/s 747 mmHg 32%
    22:00 +24°C° 0 mm 1 m/s 747 mmHg 35%
    23:00 +23°C° 0 mm 1 m/s 747 mmHg 39%

    Après-demain, 18 Septembre, Mercredi

    Heure Température Précipitation Vent Pression Humidité
    00:00 +22°C° 0 mm 1 m/s 747 mmHg 42%
    01:00 +22°C° 0 mm 1 m/s 747 mmHg 44%
    02:00 +21°C° 0 mm 1 m/s 747 mmHg 46%
    03:00 +21°C° 0 mm 1 m/s 747 mmHg 49%
    04:00 +20°C° 0 mm 1 m/s 746 mmHg 52%
    05:00 +20°C° 0 mm 1 m/s 746 mmHg 55%
    06:00 +21°C° 0 mm 1 m/s 747 mmHg 52%
    07:00 +23°C° 0 mm 2 m/s 747 mmHg 48%
    08:00 +24°C° 0 mm 2 m/s 747 mmHg 45%
    09:00 +27°C° 0 mm 2 m/s 747 mmHg 37%
    10:00 +30°C° 0 mm 3 m/s 747 mmHg 30%
    11:00 +33°C° 0 mm 3 m/s 748 mmHg 23%
    12:00 +34°C° 0 mm 4 m/s 748 mmHg 22%
    13:00 +35°C° 0 mm 5 m/s 748 mmHg 21%
    14:00 +36°C° 0 mm 6 m/s 748 mmHg 20%
    15:00 +34°C° 0 mm 7 m/s 748 mmHg 25%
    16:00 +32°C° 0 mm 7 m/s 749 mmHg 30%
    17:00 +29°C° 0 mm 8 m/s 749 mmHg 36%
    18:00 +26°C° 0 mm 7 m/s 750 mmHg 44%
    19:00 +23°C° 0 mm 5 m/s 751 mmHg 52%
    20:00 +20°C° 0 mm 4 m/s 752 mmHg 61%
    21:00 +20°C° 0 mm 4 m/s 752 mmHg 64%
    22:00 +19°C° 0 mm 4 m/s 753 mmHg 67%
    23:00 +18°C° 0 mm 3 m/s 753 mmHg 70%

    19 Septembre, Jeudi

    Heure Température Précipitation Vent Pression Humidité
    00:00 +18°C° 0 mm 3 m/s 753 mmHg 69%
    01:00 +18°C° 0 mm 3 m/s 753 mmHg 68%
    02:00 +18°C° 0 mm 2 m/s 753 mmHg 67%
    03:00 +18°C° 0 mm 2 m/s 753 mmHg 64%
    04:00 +18°C° 0 mm 2 m/s 753 mmHg 60%
    05:00 +18°C° 0 mm 2 m/s 753 mmHg 57%
    06:00 +18°C° 0 mm 2 m/s 753 mmHg 55%
    07:00 +19°C° 0 mm 2 m/s 753 mmHg 53%
    08:00 +19°C° 0 mm 2 m/s 753 mmHg 50%
    09:00 +20°C° 0 mm 3 m/s 754 mmHg 48%
    10:00 +21°C° 0 mm 3 m/s 754 mmHg 46%
    11:00 +22°C° 0 mm 3 m/s 754 mmHg 44%
    12:00 +24°C° 0 mm 3 m/s 753 mmHg 43%
    13:00 +24°C° 0 mm 3 m/s 753 mmHg 43%
    14:00 +25°C° 0 mm 3 m/s 752 mmHg 42%
    15:00 +24°C° 0 mm 3 m/s 752 mmHg 43%
    16:00 +24°C° 0 mm 3 m/s 752 mmHg 44%
    17:00 +22°C° 0 mm 3 m/s 752 mmHg 46%
    18:00 +21°C° 0.1 mm 3 m/s 752 mmHg 52%
    19:00 +19°C° 0.1 mm 3 m/s 752 mmHg 59%
    20:00 +18°C° 0.1 mm 3 m/s 753 mmHg 66%
    21:00 +17°C° 0.1 mm 3 m/s 753 mmHg 67%
    22:00 +17°C° 0.1 mm 2 m/s 753 mmHg 68%
    23:00 +17°C° 0.1 mm 2 m/s 753 mmHg 69%

    20 Septembre, Vendredi

    Heure Température Précipitation Vent Pression Humidité
    00:00 +16°C° 0.3 mm 2 m/s 753 mmHg 71%
    01:00 +16°C° 0.3 mm 2 m/s 753 mmHg 72%
    02:00 +15°C° 0.3 mm 2 m/s 753 mmHg 74%
    03:00 +15°C° 0.1 mm 2 m/s 753 mmHg 72%
    04:00 +15°C° 0.1 mm 1 m/s 753 mmHg 71%
    05:00 +15°C° 0.1 mm 1 m/s 753 mmHg 69%
    06:00 +16°C° 0 mm 2 m/s 753 mmHg 64%
    07:00 +16°C° 0 mm 2 m/s 753 mmHg 59%
    08:00 +16°C° 0 mm 3 m/s 753 mmHg 54%
    09:00 +18°C° 0 mm 4 m/s 753 mmHg 43%
    10:00 +20°C° 0 mm 4 m/s 753 mmHg 31%
    11:00 +21°C° 0 mm 5 m/s 753 mmHg 20%
    12:00 +22°C° 0 mm 5 m/s 753 mmHg 19%
    13:00 +22°C° 0 mm 6 m/s 753 mmHg 18%
    14:00 +23°C° 0 mm 6 m/s 752 mmHg 17%
    15:00 +23°C° 0 mm 5 m/s 752 mmHg 19%
    16:00 +22°C° 0 mm 5 m/s 752 mmHg 21%
    17:00 +22°C° 0 mm 4 m/s 752 mmHg 23%
    18:00 +19°C° 0 mm 4 m/s 753 mmHg 32%
    19:00 +17°C° 0 mm 3 m/s 754 mmHg 40%
    20:00 +15°C° 0 mm 2 m/s 754 mmHg 48%
    21:00 +14°C° 0 mm 2 m/s 755 mmHg 50%
    22:00 +13°C° 0 mm 1 m/s 755 mmHg 53%
    23:00 +13°C° 0 mm 1 m/s 755 mmHg 55%

    21 Septembre, Samedi

    Heure Température Précipitation Vent Pression Humidité
    00:00 +12°C° 0 mm 1 m/s 755 mmHg 53%
    01:00 +12°C° 0 mm 1 m/s 756 mmHg 52%
    02:00 +11°C° 0 mm 1 m/s 756 mmHg 50%
    03:00 +11°C° 0 mm 1 m/s 756 mmHg 50%
    04:00 +9°C° 0 mm 2 m/s 756 mmHg 50%
    05:00 +9°C° 0 mm 2 m/s 757 mmHg 49%
    06:00 +10°C° 0 mm 2 m/s 757 mmHg 45%
    07:00 +12°C° 0 mm 3 m/s 757 mmHg 40%
    08:00 +13°C° 0 mm 3 m/s 758 mmHg 35%
    09:00 +16°C° 0 mm 3 m/s 758 mmHg 32%
    10:00 +17°C° 0 mm 3 m/s 758 mmHg 29%
    11:00 +19°C° 0 mm 3 m/s 758 mmHg 26%
    12:00 +19°C° 0 mm 3 m/s 758 mmHg 24%
    13:00 +20°C° 0 mm 2 m/s 758 mmHg 23%
    14:00 +21°C° 0 mm 2 m/s 757 mmHg 21%
    15:00 +21°C° 0 mm 2 m/s 757 mmHg 21%
    16:00 +20°C° 0 mm 3 m/s 757 mmHg 22%
    17:00 +20°C° 0 mm 3 m/s 757 mmHg 22%
    18:00 +18°C° 0 mm 3 m/s 757 mmHg 29%
    19:00 +14°C° 0 mm 3 m/s 758 mmHg 37%
    20:00 +13°C° 0 mm 2 m/s 758 mmHg 44%
    21:00 +12°C° 0 mm 2 m/s 758 mmHg 47%
    22:00 +11°C° 0 mm 1 m/s 758 mmHg 51%
    23:00 +11°C° 0 mm 1 m/s 759 mmHg 54%
    Voir plus